Погода в Теленештах

Молдова     47°30′10″N   28°21′49″E
темп.,
°C
ветер,
м/с
пор.,
м/с
влажн.,
%
обл.,
%
осадки,
мм/ч
давл.,
гПа
погр.,
м
6 мая, чт
чт600:00+11ю81771100 0.4 1007422
03:00+10ююз61375100 0.4 1006306
06:00+9ююз128175 0.1 100747
09:00+11зсз4985100 0.2 1010536
12:00+11ссз5873100 0.0 1013880
15:00+16ссз6647100 0.0 10131726
18:00+15ссз3349100 0.0 10141179
21:00+11ююв226198 0.0 101411
7 мая, пт
пт700:00+10ююв11642 0.0 101510
03:00+9юв2269100 0.0 101428
06:00+10юв3978100 0.0 1014270
09:00+13ююв7137225 0.3 1013628
12:00+18ю81064100 0.4 10111429
15:00+20ююз81055100 1.0 10081614
18:00+18ююз51165100 0.1 1007397
21:00+16зюз3871100 0.3 1007171
8 мая, сб
сб800:00+14сз2280100 0.1 100838
03:00+12сз61084100 0.2 1010561
06:00+9сз71284100 1.6 1013699
09:00+7сз71277100 1.9 1016659
12:00+11сз8105191 0.0 10171428
15:00+13ссз8104546 0.0 10182084
18:00+11с89525 0.0 10191762
21:00+8ссз510600 0.0 1021367
9 мая, вс
вс900:00+5зсз34700 0.0 102380
03:00+5з22730 0.0 102527
06:00+4з22800 0.0 102616
09:00+10сз35620 0.0 1027551
12:00+14сз35445 0.0 10271745
15:00+16зсз33365 0.0 10262161
18:00+16юз0136100 0.0 10261870
21:00+11вюв22491 0.0 102711
10 мая, пн
пн1000:00+9юв33530 0.0 102723
03:00+8юв33575 0.0 102733
06:00+7юв33675 0.0 102740
09:00+13юв46591 0.0 1027462
12:00+17ююв664349 0.0 10261548
15:00+19ююв56403 0.0 10241725
18:00+18ююв45420 0.0 10231606
21:00+13юв22620 0.0 102318